Back to catalog

COSMOS 2502

AliveMilitaryLEO
NORAD 40358·PAYLOAD·🇷🇺 Russia

Launched Dec 25, 2014 from Plesetsk Cosmodrome

Loading…

Next Passes (next 24 hours)

TLE

FreshSource: Space-Track

Epoch: Sep 14, 2026, 15:39 UTC

1 40358U 14086A   26257.65267413 -.00000123  00000-0 -33428-4 0  9997
2 40358  67.1532 149.4308 0005968 244.2822 115.7647 13.97831297596457

Track COSMOS 2502 in real time with AllMySat

Download on the App Store